User: anonymous   Login
Location: Unspecified
(0.0000°N, 0.0000°E)
Time: 11:49:51
(UTC+00:00)
Language:

HOOPOE (2U) - Orbit

View from above orbital plane
View from above orbital plane
View from above satellite
View from above satellite

Ground track
Ground track

The orbit data is extracted from the following two-line orbital elements,

1 42718U 98067LZ  18168.96064716  .00030538  00000-0  21826-3 0  9996
2 42718  51.6358 349.1278 0002737 236.5251 123.5486 15.73474113 61102
Epoch (UTC): 17 June 2018 23:03:19
Eccentricity: 0.0002737
inclination: 51.6358°
perigee height: 347 km
apogee height: 351 km
right ascension of ascending node: 349.1278°
argument of perigee: 236.5251°
revolutions per day: 15.73474113
mean anomaly at epoch: 123.5486°
orbit number at epoch: 6110

The dashed part of the orbit path shows where the satellite is in the earth's shadow,  

DLR